Hourly Data Report for March 30, 2016

DAWSON
YUKON TERRITORY

64°03'39.076" N
139°07'36.000" W
370.00 m
2100LRP
71966
WON

Download Data

Hourly Data (March 2016)
Hourly Data Report for March 30, 2016
TIME
LST
Temp Definition
°C
Dew Point Definition
°C
Rel Hum Definition
%
Precip. Amount Definition
mm

Wind Dir Definition
10's deg

Wind Spd Definition
km/h
Visibility Definition
km
Stn Press Definition
kPa
Hmdx Definition


Wind Chill Definition


Weather Definition


00:00 3.0 -2.1 69 0.0 29 2   97.61     LegendNANA
01:00 2.6 -2.2 70 0.0 28 5   97.67     LegendNANA
02:00 3.2 -0.9 74 0.0 22 8   97.71     LegendNANA
03:00 0.9 -2.3 79 0.0 22 1   97.75     LegendNANA
04:00 -0.5 -2.6 86 0.0 0 1   97.78   -1 LegendNANA
05:00 -0.8 -2.5 88 0.0   0   97.80     LegendNANA
06:00 -0.8 -2.6 88 0.0 36 2   97.82   -1 LegendNANA
07:00 -0.6 -2.5 87 0.0 7 3   97.81   -2 LegendNANA
08:00 0.2 -2.1 84 0.0   0   97.79     LegendNANA
09:00 1.1 -1.6 82 0.0 9 4   97.77     LegendNANA
10:00 1.5 -0.9 84 0.0 6 7   97.75     LegendNANA
11:00 2.7 -0.1 82 0.2 3 4   97.72     LegendNANA
12:00 3.9 0.8 80 0.0 2 8   97.64     LegendNANA
13:00 5.9 1.1 71 0.0 3 10   97.54     LegendNANA
14:00 7.6 1.1 64 0.0 4 15   97.45     LegendNANA
15:00 8.2 1.1 61 0.0 4 14   97.38     LegendNANA
16:00 9.0 0.6 56 0.0 4 11   97.31     LegendNANA
17:00 9.7 0.1 51 0.0 35 5   97.24     LegendNANA
18:00 8.0 0.1 57 0.0 33 2   97.23     LegendNANA
19:00 4.3 -0.3 72 0.0 16 2   97.22     LegendNANA
20:00 3.1 -0.8 76 0.0   0   97.24     LegendNANA
21:00 2.9 -0.7 77 0.0 7 3   97.26     LegendNANA
22:00 1.6 -1.0 82 0.0 11 3   97.28     LegendNANA
23:00 0.5 -1.5 87 0.0   0   97.31     LegendNANA

Notes on Data Quality.

Legend

  • E = Estimated
  • M = Missing
  • NA = Not Available*
  • [empty] = Indicates an unobserved value
Date modified: